Regional Weather Roundup
Issued by NWS Jackson, KY

Home | Current Version | Previous Version | Text Only | Print | Product List | Glossary On
Versions: 1 2 3 4 5 6 7 8 9 10 11 12 13 14 15 16 17 18 19 20 21 22 23 24 25 26 27 28 29 30 31 32 33 34 35 36 37 38 39 40 41 42 43 44 45 46 47 48 49 50
000
ASUS43 KJKL 251819
RWRJKL

EAST KENTUCKY HOURLY WEATHER ROUNDUP
NATIONAL WEATHER SERVICE JACKSON KY
100 PM EST SUN JAN 25 2015

NOTE: "FAIR" INDICATES FEW OR NO CLOUDS BELOW 12,000 FEET WITH
NO SIGNIFICANT WEATHER AND/OR OBSTRUCTIONS TO VISIBILITY.

* THESE REPORTS ARE NOT UNDER NWS QUALITY CONTROL AND MAY NOT
  REPORT WEATHER SUCH AS PRECIPITATION AND FOG.

KYZ079-080-083-085-087-088-110-112-115-119-120-251900
...EASTERN KENTUCKY...

CITY           SKY/WX    TMP DP  RH WIND       PRES   REMARKS
JACKSON        CLOUDY    46  33  60 VRB3      29.72F
6HR MIN TEMP:  34; 6HR MAX TEMP:  46;

LONDON         PTSUNNY   50  30  46 S13       29.72F
6HR MIN TEMP:  34; 6HR MAX TEMP:  50;

SOMERSET*      CLOUDY    46  32  57 S9        29.72F
MONTICELLO*    PTSUNNY   53  35  50 S12       29.73F
6HR MIN TEMP:  35; 6HR MAX TEMP:  53;

MIDDLESBORO*   MOSUNNY   48  33  54 S5G17     29.77F
6HR MIN TEMP:  26; 6HR MAX TEMP:  48;

HARLAN APT*    CLOUDY    50  32  50 SE3       29.75F
HAZARD APT*    CLEAR     48  34  57 S6        29.74F
BLACK MTN*       N/A     34  30  86 S6          N/A  WCI  29
PIKEVILLE APT* SUNNY     45  32  61 S7        29.74F
BIG SANDY*     CLOUDY    47  33  59 S8        29.74F
6HR MIN TEMP:  34; 6HR MAX TEMP:  47;

MOREHEAD APT*  CLOUDY    43  32  65 SE6       29.72F
ASHLAND*       SUNNY    N/A N/A N/A SE3       29.71F
$$

KYZ035-036-041-042-044-050-067-078-099-251900
...CENTRAL KENTUCKY...

CITY           SKY/WX    TMP DP  RH WIND       PRES   REMARKS
MT STERLING*   CLOUDY    43  34  70 SW8       29.71F
FLEMING/MASON* CLOUDY    37  32  82 S8        29.71F WCI  31
DANVILLE*      PTSUNNY   45  36  70 S13       29.69F
RICHMOND*      PTSUNNY   46  34  61 S10       29.70F
LEXINGTON      CLOUDY    39  32  76 S10       29.69F WCI  32
6HR MIN TEMP:  34; 6HR MAX TEMP:  39;

FRANKFORT      CLOUDY    42  32  67 S8        29.68F
6HR MIN TEMP:  36; 6HR MAX TEMP:  42;

$$

KYZ091>093-OHZ055-061-077-WVZ005-015-034-035-042-251900
...SOUTHERN OHIO/WEST VIRGINIA...

CITY           SKY/WX    TMP DP  RH WIND       PRES   REMARKS
COVINGTON      LGT RAIN  41  34  76 SE7       29.69F
COLUMBUS       LGT SNOW  34  32  92 E5        29.75F VSB 1   WCI  30
DAYTON         LGT RAIN  38  36  92 E10       29.69F FOG     WCI  31
WILMINGTON     CLOUDY    38  33  82 SE6       29.70F WCI  33
HUNTINGTON     CLOUDY    42  34  73 CALM      29.73F
CHARLESTON     CLOUDY    44  32  62 SE3       29.76F
PINEVILLE*     CLOUDY    45  35  68 MISG      29.82F
BECKLEY        CLOUDY    41  29  62 SW8       29.76F
BLUEFIELD      CLOUDY    40  31  70 S7        29.78F
$$

VAZ002-007-008-TNZ017-027-036-066-071-251900
...SOUTHWEST VIRGINIA/EAST TENNESSEE...

CITY           SKY/WX    TMP DP  RH WIND       PRES   REMARKS
WISE*          CLOUDY    43  30  61 S12       29.76F
JONESVILLE*    CLOUDY    46  32  57 CALM      29.80F
ABINGDON*      PTSUNNY   48  30  49 W5        29.78F
BRISTOL        CLOUDY    48  32  53 CALM      29.78F
KNOXVILLE      PTSUNNY   52  34  50 SW18G26   29.77F
OAK RIDGE      SUNNY     49  32  52 W6        29.80F
CROSSVILLE     SUNNY     48  31  51 S9G21     29.73F
NASHVILLE      PTSUNNY   56  36  47 S18G28    29.67F
$$

...KEY TO REMARKS...
VSB - VISIBILITY IN MILES
WCI - WIND CHILL INDEX
HX  - HEAT INDEX

$$


USA.gov is the U.S. government's official web portal to all federal, state and local government web resources and services.